| time (UTC) | temp C | wind direction | speed KPH | gust KPH | rain 1hr cm | rain 24hr cm | rain mn cm | humidity % | barometer mb |
| 20260506201521 | 12 | 206 | 0.0 | 8.0 | 0.00 | 0.00 | 0.00 | 82 | 1021.5 |
| 20260506200033 | 12 | 128 | 0.0 | 9.7 | 0.00 | 0.00 | 0.00 | 82 | 1021.3 |
| 20260506194524 | 12 | 219 | 1.6 | 8.0 | 0.00 | 0.00 | 0.00 | 82 | 1021.3 |
| 20260506193027 | 12 | 179 | 0.0 | 4.8 | 0.00 | 0.00 | 0.00 | 82 | 1021.2 |
| 20260506191514 | 12 | 179 | 1.6 | 3.2 | 0.00 | 0.00 | 0.00 | 84 | 1021.0 |
| 20260506190021 | 11 | 181 | 1.6 | 11.3 | 0.00 | 0.00 | 0.00 | 84 | 1020.9 |
| 20260506184525 | 11 | 190 | 1.6 | 8.0 | 0.00 | 0.00 | 0.00 | 84 | 1020.8 |
| 20260506183030 | 11 | 244 | 0.0 | 4.8 | 0.00 | 0.00 | 0.00 | 85 | 1021.0 |
| 20260506181532 | 11 | 203 | 0.0 | 4.8 | 0.00 | 0.00 | 0.00 | 84 | 1020.9 |
| 20260506180020 | 12 | 213 | 0.0 | 3.2 | 0.00 | 0.00 | 0.00 | 83 | 1020.9 |
| 20260506174522 | 12 | 159 | 0.0 | 4.8 | 0.00 | 0.00 | 0.00 | 85 | 1020.9 |
| 20260506173006 | 12 | 99 | 0.0 | 3.2 | 0.00 | 0.00 | 0.00 | 86 | 1020.6 |
| 20260506171520 | 12 | 72 | 0.0 | 3.2 | 0.00 | 0.00 | 0.00 | 86 | 1020.5 |
| 20260506170020 | 12 | 124 | 0.0 | 3.2 | 0.00 | 0.00 | 0.00 | 86 | 1020.2 |
| 20260506164522 | 12 | 240 | 0.0 | 6.4 | 0.00 | 0.00 | 0.00 | 86 | 1020.3 |
| 20260506163004 | 11 | 248 | 0.0 | 3.2 | 0.00 | 0.00 | 0.00 | 86 | 1020.3 |
| 20260506161537 | 11 | 254 | 0.0 | 4.8 | 0.00 | 0.00 | 0.00 | 87 | 1020.3 |
| 20260506160023 | 11 | 150 | 0.0 | 0.0 | 0.00 | 0.00 | 0.00 | 87 | 1020.5 |
| 20260506154521 | 11 | 185 | 0.0 | 9.7 | 0.00 | 0.00 | 0.00 | 87 | 1020.4 |
| 20260506153026 | 11 | 196 | 0.0 | 9.7 | 0.00 | 0.00 | 0.00 | 87 | 1020.4 |
| 20260506151508 | 11 | 215 | 0.0 | 6.4 | 0.00 | 0.00 | 0.00 | 87 | 1020.2 |
| 20260506150025 | 11 | 166 | 0.0 | 4.8 | 0.00 | 0.00 | 0.00 | 87 | 1020.0 |
| 20260506144518 | 11 | 101 | 0.0 | 3.2 | 0.00 | 0.00 | 0.00 | 88 | 1019.9 |
| 20260506143037 | 11 | 158 | 0.0 | 6.4 | 0.00 | 0.00 | 0.00 | 87 | 1019.6 |
| 20260506141509 | 11 | 196 | 0.0 | 3.2 | 0.00 | 0.00 | 0.00 | 87 | 1019.6 |
| 20260506140014 | 11 | 127 | 1.6 | 6.4 | 0.00 | 0.00 | 0.00 | 87 | 1019.7 |
| 20260506134514 | 11 | 99 | 0.0 | 8.0 | 0.00 | 0.00 | 0.00 | 88 | 1019.5 |
| 20260506133025 | 11 | 51 | 0.0 | 6.4 | 0.00 | 0.00 | 0.00 | 88 | 1019.2 |
| 20260506131528 | 11 | 106 | 1.6 | 6.4 | 0.00 | 0.00 | 0.00 | 88 | 1018.8 |
| 20260506130012 | 11 | 98 | 0.0 | 4.8 | 0.00 | 0.00 | 0.00 | 88 | 1018.9 |
| 20260506124517 | 11 | 192 | 0.0 | 6.4 | 0.00 | 0.00 | 0.00 | 88 | 1019.0 |
| 20260506123022 | 11 | 194 | 0.0 | 3.2 | 0.00 | 0.00 | 0.00 | 89 | 1019.1 |
| 20260506121527 | 11 | 172 | 1.6 | 8.0 | 0.00 | 0.00 | 0.00 | 90 | 1019.2 |
| 20260506120031 | 11 | 221 | 1.6 | 4.8 | 0.00 | 0.00 | 0.00 | 89 | 1018.8 |
| 20260506114519 | 11 | 240 | 0.0 | 4.8 | 0.00 | 0.00 | 0.00 | 89 | 1018.6 |
| 20260506111521 | 10 | 79 | 0.0 | 6.4 | 0.00 | 0.00 | 0.00 | 91 | 1018.5 |
| 20260506110034 | 10 | 352 | 1.6 | 4.8 | 0.00 | 0.00 | 0.00 | 91 | 1018.4 |
| 20260506104528 | 10 | 289 | 0.0 | 4.8 | 0.00 | 0.00 | 0.00 | 91 | 1018.3 |
| 20260506103017 | 10 | 179 | 1.6 | 4.8 | 0.00 | 0.00 | 0.00 | 91 | 1018.1 |
| 20260506101543 | 10 | 250 | 1.6 | 12.9 | 0.00 | 0.00 | 0.00 | 91 | 1017.9 |
| 20260506100024 | 10 | 276 | 1.6 | 8.0 | 0.00 | 0.00 | 0.00 | 91 | 1017.7 |
| 20260506094526 | 10 | 202 | 1.6 | 6.4 | 0.00 | 0.00 | 0.00 | 91 | 1017.6 |
| 20260506093016 | 10 | 352 | 1.6 | 4.8 | 0.00 | 0.00 | 0.00 | 91 | 1017.5 |
| 20260506091530 | 10 | 179 | 1.6 | 11.3 | 0.00 | 0.00 | 0.00 | 91 | 1017.4 |
| 20260506090025 | 10 | 169 | 1.6 | 12.9 | 0.00 | 0.00 | 0.00 | 90 | 1017.4 |
| 20260506084530 | 10 | 264 | 1.6 | 6.4 | 0.00 | 0.00 | 0.00 | 90 | 1017.4 |
| 20260506083012 | 10 | 263 | 1.6 | 6.4 | 0.00 | 0.00 | 0.00 | 90 | 1017.3 |
| 20260506081519 | 10 | 267 | 1.6 | 12.9 | 0.00 | 0.00 | 0.00 | 90 | 1017.2 |
| 20260506073010 | 11 | 284 | 0.0 | 8.0 | 0.00 | 0.00 | 0.00 | 89 | 1016.9 |
| 20260506071516 | 11 | 331 | 0.0 | 8.0 | 0.00 | 0.00 | 0.00 | 90 | 1017.0 |
| 20260506061510 | 11 | 105 | 0.0 | 8.0 | 0.00 | 0.00 | 0.00 | 89 | 1016.5 |
| 20260506044524 | 11 | 222 | 1.6 | 4.8 | 0.00 | 0.00 | 0.00 | 86 | 1016.1 |
| 20260506043004 | 12 | 75 | 1.6 | 6.4 | 0.00 | 0.00 | 0.00 | 85 | 1015.9 |
| 20260506041517 | 12 | 324 | 1.6 | 4.8 | 0.00 | 0.00 | 0.00 | 84 | 1015.8 |
| 20260506040013 | 13 | 115 | 0.0 | 3.2 | 0.00 | 0.00 | 0.00 | 82 | 1015.6 |
| 20260506034518 | 14 | 194 | 0.0 | 3.2 | 0.00 | 0.00 | 0.00 | 80 | 1015.4 |
| 20260506033029 | 15 | 190 | 0.0 | 4.8 | 0.00 | 0.00 | 0.00 | 78 | 1015.2 |
| 20260506031507 | 15 | 250 | 0.0 | 3.2 | 0.00 | 0.00 | 0.00 | 78 | 1015.1 |
| 20260506030034 | 15 | 230 | 0.0 | 4.8 | 0.00 | 0.00 | 0.00 | 77 | 1015.1 |
| 20260506024530 | 15 | 208 | 1.6 | 9.7 | 0.00 | 0.00 | 0.00 | 76 | 1015.1 |
| 20260506023021 | 15 | 234 | 0.0 | 3.2 | 0.00 | 0.00 | 0.00 | 76 | 1015.1 |
| 20260506021526 | 16 | 264 | 1.6 | 4.8 | 0.00 | 0.00 | 0.00 | 76 | 1015.2 |
| 20260506020013 | 16 | 264 | 1.6 | 9.7 | 0.00 | 0.00 | 0.00 | 75 | 1015.1 |
| 20260506014517 | 16 | 253 | 1.6 | 3.2 | 0.00 | 0.00 | 0.00 | 72 | 1015.1 |
| 20260506013026 | 17 | 275 | 0.0 | 3.2 | 0.00 | 0.00 | 0.00 | 71 | 1015.1 |
| 20260506011527 | 17 | 246 | 1.6 | 8.0 | 0.00 | 0.00 | 0.00 | 70 | 1015.2 |
| 20260506010029 | 17 | 44 | 0.0 | 4.8 | 0.00 | 0.00 | 0.00 | 70 | 1015.3 |
| 20260506004518 | 17 | 169 | 0.0 | 4.8 | 0.00 | 0.00 | 0.00 | 70 | 1015.4 |
| 20260506003018 | 17 | 176 | 1.6 | 6.4 | 0.00 | 0.00 | 0.00 | 70 | 1015.5 |
| 20260506001524 | 17 | 333 | 1.6 | 6.4 | 0.00 | 0.00 | 0.00 | 72 | 1015.6 |
| 20260506000036 | 16 | 141 | 0.0 | 6.4 | 0.00 | 0.00 | 0.00 | 73 | 1015.8 |
| 20260505234516 | 16 | 133 | 0.0 | 3.2 | 0.00 | 0.00 | 0.00 | 73 | 1015.8 |
| 20260505233029 | 16 | 200 | 1.6 | 6.4 | 0.00 | 0.00 | 0.00 | 74 | 1016.1 |
| 20260505231531 | 16 | 186 | 1.6 | 6.4 | 0.00 | 0.00 | 0.00 | 74 | 1016.3 |
| 20260505230032 | 16 | 150 | 1.6 | 8.0 | 0.00 | 0.00 | 0.00 | 76 | 1016.3 |
| 20260505224507 | 16 | 147 | 3.2 | 9.7 | 0.00 | 0.00 | 0.00 | 74 | 1016.4 |
| 20260505223040 | 16 | 282 | 1.6 | 8.0 | 0.00 | 0.00 | 0.00 | 74 | 1016.6 |
| 20260505221518 | 16 | 9 | 4.8 | 11.3 | 0.00 | 0.00 | 0.00 | 74 | 1016.6 |
| 20260505220037 | 16 | 234 | 3.2 | 9.7 | 0.00 | 0.00 | 0.00 | 75 | 1016.7 |
| 20260505214513 | 16 | 229 | 1.6 | 11.3 | 0.00 | 0.00 | 0.00 | 74 | 1016.7 |
| 20260505213015 | 16 | 133 | 1.6 | 6.4 | 0.00 | 0.00 | 0.00 | 75 | 1016.8 |
| 20260505211528 | 16 | 202 | 1.6 | 8.0 | 0.00 | 0.00 | 0.00 | 75 | 1016.9 |
| 20260505210029 | 16 | 219 | 0.0 | 6.4 | 0.00 | 0.00 | 0.00 | 76 | 1017.0 |
| 20260505204532 | 16 | 220 | 1.6 | 9.7 | 0.00 | 0.00 | 0.00 | 75 | 1017.3 |
| 20260505203009 | 16 | 236 | 3.2 | 12.9 | 0.00 | 0.00 | 0.00 | 77 | 1017.2 |